Portada
METAR-TAF:

METAR-TAF

Aeroports :

Narrabri, Austràlia

latitud: 30-19-09S, longitud: 149-49-38E, altitud: 240 m

Observació

L'informe es va fer fa 44 minuts, a les 10:00 UTC
Vent 9 kt del Sud-Est
Temperatura 15°C
Humitat 55%
Pressió 1021 hPa
Visibilitat 10 km o més
Cel ennuvolat a una alçada de 9200 ft

METAR: YNBR 251000Z AUTO 14009KT 9999 // BKN092 15/06 Q1021

Hora: 20:44 (10:44 UTC)


TAF: manca

Observacions i pronòstics meteorològics de més de 4000 aeroports (METAR i TAF).

Les estacions disponibles són els punts grocs i vermells al mapa.

Posi el ratolí al punt desitjat per veure el nom de l'estació.

Feu clic per veure les observacions i els pronòstics meteorològics.

Per canviar el mapa: feu clic els botons verds amb una creu de color negre per apropar; al botó verd amb un guió per allunyar la imatge; o en les fletxes verdes per a mapes adjacents.


METAR-TAF: